• In Hungary
  • List of Countries
  • For 7 days
  • Water Temperature
  • Satellite Maps
  • Weather Map
  • News
  • Weather Widgets
  • user-avatar
    Login

    Hourly Weather Ko Libong

    Today, 19 November, Sunday

    Time Temperature Precipitation Wind Pressure Humidity
    00:00 +27°C° 0 mm 1 mps 756 mmHg 89%
    01:00 +27°C° 0 mm 1 mps 756 mmHg 89%
    02:00 +27°C° 0.1 mm 1 mps 756 mmHg 89%
    03:00 +26°C° 0.1 mm 1 mps 756 mmHg 89%
    04:00 +26°C° 0.1 mm 1 mps 755 mmHg 89%
    05:00 +27°C° 0.3 mm 1 mps 756 mmHg 88%
    06:00 +27°C° 0.3 mm 1 mps 756 mmHg 87%
    07:00 +27°C° 0.3 mm 1 mps 756 mmHg 86%
    08:00 +30°C° 0.2 mm 1 mps 756 mmHg 76%
    09:00 +32°C° 0.2 mm 1 mps 757 mmHg 66%
    10:00 +35°C° 0.2 mm 1 mps 757 mmHg 56%
    11:00 +35°C° 0 mm 1 mps 757 mmHg 54%
    12:00 +37°C° 0 mm 2 mps 756 mmHg 51%
    13:00 +37°C° 0 mm 2 mps 756 mmHg 49%
    14:00 +36°C° 0 mm 3 mps 755 mmHg 55%
    15:00 +35°C° 0 mm 3 mps 754 mmHg 61%
    16:00 +34°C° 0 mm 3 mps 754 mmHg 68%
    17:00 +31°C° 0.4 mm 3 mps 754 mmHg 75%
    18:00 +30°C° 0.4 mm 3 mps 754 mmHg 82%
    19:00 +28°C° 0.4 mm 3 mps 755 mmHg 89%
    20:00 +28°C° 0.6 mm 3 mps 755 mmHg 90%
    21:00 +28°C° 0.6 mm 3 mps 756 mmHg 91%
    22:00 +28°C° 0.6 mm 2 mps 757 mmHg 91%
    23:00 +28°C° 0.3 mm 2 mps 757 mmHg 91%

    Tomorrow, 20 November, Monday

    Time Temperature Precipitation Wind Pressure Humidity
    00:00 +27°C° 0.3 mm 2 mps 756 mmHg 92%
    01:00 +27°C° 0.3 mm 2 mps 756 mmHg 92%
    02:00 +27°C° 0.9 mm 2 mps 756 mmHg 92%
    03:00 +27°C° 0.9 mm 2 mps 755 mmHg 93%
    04:00 +27°C° 0.9 mm 2 mps 755 mmHg 93%
    05:00 +27°C° 0.1 mm 2 mps 755 mmHg 93%
    06:00 +27°C° 0.1 mm 2 mps 756 mmHg 92%
    07:00 +28°C° 0.1 mm 2 mps 756 mmHg 92%
    08:00 +29°C° 0.6 mm 2 mps 756 mmHg 83%
    09:00 +31°C° 0.6 mm 2 mps 757 mmHg 73%
    10:00 +34°C° 0.6 mm 2 mps 757 mmHg 64%
    11:00 +34°C° 0.4 mm 2 mps 757 mmHg 63%
    12:00 +35°C° 0.4 mm 2 mps 756 mmHg 62%
    13:00 +35°C° 0.4 mm 3 mps 756 mmHg 61%
    14:00 +34°C° 0.6 mm 3 mps 755 mmHg 64%
    15:00 +34°C° 0.6 mm 3 mps 754 mmHg 67%
    16:00 +33°C° 0.6 mm 3 mps 753 mmHg 69%
    17:00 +31°C° 0.7 mm 2 mps 754 mmHg 76%
    18:00 +29°C° 0.7 mm 2 mps 754 mmHg 83%
    19:00 +28°C° 0.7 mm 2 mps 755 mmHg 90%
    20:00 +28°C° 0.3 mm 2 mps 755 mmHg 91%
    21:00 +27°C° 0.3 mm 2 mps 756 mmHg 91%
    22:00 +27°C° 0.3 mm 1 mps 757 mmHg 92%
    23:00 +27°C° 0 mm 1 mps 756 mmHg 93%

    Day after tomorrow, 21 November, Tuesday

    Time Temperature Precipitation Wind Pressure Humidity
    00:00 +27°C° 0 mm 1 mps 756 mmHg 93%
    01:00 +27°C° 0 mm 1 mps 756 mmHg 94%
    02:00 +26°C° 0 mm 1 mps 755 mmHg 94%
    03:00 +26°C° 0 mm 1 mps 755 mmHg 95%
    04:00 +26°C° 0 mm 1 mps 754 mmHg 95%
    05:00 +26°C° 0.8 mm 1 mps 755 mmHg 94%
    06:00 +27°C° 0.8 mm 1 mps 755 mmHg 94%
    07:00 +27°C° 0.8 mm 2 mps 755 mmHg 93%
    08:00 +29°C° 0.7 mm 2 mps 756 mmHg 83%
    09:00 +31°C° 0.7 mm 2 mps 757 mmHg 74%
    10:00 +34°C° 0.7 mm 2 mps 757 mmHg 64%
    11:00 +34°C° 0.3 mm 2 mps 756 mmHg 64%
    12:00 +34°C° 0.3 mm 2 mps 756 mmHg 64%
    13:00 +34°C° 0.3 mm 2 mps 755 mmHg 64%
    14:00 +34°C° 0.5 mm 2 mps 754 mmHg 66%
    15:00 +34°C° 0.5 mm 2 mps 753 mmHg 68%
    16:00 +32°C° 0.5 mm 2 mps 753 mmHg 70%
    17:00 +31°C° 0.1 mm 2 mps 753 mmHg 75%
    18:00 +30°C° 0.1 mm 2 mps 754 mmHg 80%
    19:00 +28°C° 0.1 mm 1 mps 754 mmHg 85%
    20:00 +28°C° 0.1 mm 1 mps 755 mmHg 86%
    21:00 +28°C° 0.1 mm 1 mps 756 mmHg 87%
    22:00 +28°C° 0.1 mm 1 mps 756 mmHg 88%
    23:00 +27°C° 0.2 mm 1 mps 756 mmHg 89%

    22 November, Wednesday

    Time Temperature Precipitation Wind Pressure Humidity
    00:00 +27°C° 0.2 mm 1 mps 756 mmHg 90%
    01:00 +27°C° 0.2 mm 1 mps 755 mmHg 91%
    02:00 +27°C° 1.1 mm 1 mps 755 mmHg 92%
    03:00 +27°C° 1.1 mm 1 mps 755 mmHg 92%
    04:00 +26°C° 1.1 mm 1 mps 754 mmHg 92%
    05:00 +27°C° 0.4 mm 1 mps 755 mmHg 91%
    06:00 +27°C° 0.4 mm 1 mps 755 mmHg 90%
    07:00 +27°C° 0.4 mm 1 mps 756 mmHg 89%
    08:00 +29°C° 0 mm 1 mps 756 mmHg 80%
    09:00 +31°C° 0 mm 1 mps 756 mmHg 71%
    10:00 +33°C° 0 mm 1 mps 757 mmHg 62%
    11:00 +34°C° 0.1 mm 1 mps 756 mmHg 60%
    12:00 +35°C° 0.1 mm 1 mps 755 mmHg 58%
    13:00 +36°C° 0.1 mm 1 mps 754 mmHg 56%
    14:00 +34°C° 0.8 mm 1 mps 754 mmHg 63%
    15:00 +33°C° 0.8 mm 1 mps 753 mmHg 70%
    16:00 +31°C° 0.8 mm 2 mps 753 mmHg 77%
    17:00 +30°C° 0.2 mm 1 mps 753 mmHg 81%
    18:00 +29°C° 0.2 mm 1 mps 754 mmHg 85%
    19:00 +26°C° 0.2 mm 0 mps 755 mmHg 89%
    20:00 +28°C° 0 mm 1 mps 755 mmHg 91%
    21:00 +27°C° 0 mm 1 mps 756 mmHg 92%
    22:00 +27°C° 0 mm 1 mps 756 mmHg 93%
    23:00 +27°C° 0 mm 2 mps 756 mmHg 94%

    23 November, Thursday

    Time Temperature Precipitation Wind Pressure Humidity
    00:00 +27°C° 0 mm 2 mps 755 mmHg 94%
    01:00 +26°C° 0 mm 2 mps 755 mmHg 95%
    02:00 +26°C° 0 mm 2 mps 755 mmHg 95%
    03:00 +26°C° 0 mm 2 mps 754 mmHg 96%
    04:00 +26°C° 0 mm 2 mps 754 mmHg 96%
    05:00 +26°C° 0 mm 2 mps 754 mmHg 95%
    06:00 +26°C° 0 mm 2 mps 755 mmHg 94%
    07:00 +27°C° 0 mm 2 mps 755 mmHg 94%
    08:00 +29°C° 0 mm 2 mps 756 mmHg 85%
    09:00 +30°C° 0 mm 2 mps 756 mmHg 76%
    10:00 +32°C° 0 mm 2 mps 757 mmHg 68%
    11:00 +32°C° 0.4 mm 2 mps 756 mmHg 68%
    12:00 +34°C° 0.4 mm 2 mps 755 mmHg 69%
    13:00 +33°C° 0.4 mm 1 mps 755 mmHg 70%
    14:00 +32°C° 0 mm 1 mps 754 mmHg 70%
    15:00 +32°C° 0 mm 2 mps 754 mmHg 69%
    16:00 +32°C° 0 mm 2 mps 753 mmHg 68%
    17:00 +31°C° 0.3 mm 2 mps 754 mmHg 73%
    18:00 +29°C° 0.3 mm 2 mps 754 mmHg 79%
    19:00 +28°C° 0.3 mm 2 mps 755 mmHg 84%
    20:00 +28°C° 0.1 mm 3 mps 755 mmHg 86%
    21:00 +27°C° 0.1 mm 3 mps 756 mmHg 87%
    22:00 +27°C° 0.1 mm 3 mps 756 mmHg 89%
    23:00 +27°C° 0.1 mm 3 mps 756 mmHg 90%

    24 November, Friday

    Time Temperature Precipitation Wind Pressure Humidity
    00:00 +27°C° 0.1 mm 3 mps 755 mmHg 90%
    01:00 +27°C° 0.1 mm 3 mps 755 mmHg 91%
    02:00 +27°C° 0.1 mm 3 mps 755 mmHg 91%
    03:00 +27°C° 0.1 mm 3 mps 755 mmHg 91%
    04:00 +27°C° 0.1 mm 3 mps 754 mmHg 91%
    05:00 +27°C° 0 mm 3 mps 755 mmHg 90%
    06:00 +27°C° 0 mm 3 mps 755 mmHg 89%
    07:00 +27°C° 0 mm 3 mps 756 mmHg 89%
    08:00 +28°C° 0 mm 3 mps 756 mmHg 82%
    09:00 +30°C° 0 mm 4 mps 756 mmHg 75%
    10:00 +32°C° 0 mm 4 mps 757 mmHg 69%
    11:00 +32°C° 0.2 mm 4 mps 756 mmHg 74%
    12:00 +30°C° 0.2 mm 4 mps 755 mmHg 79%
    13:00 +29°C° 0.2 mm 4 mps 755 mmHg 84%
    14:00 +29°C° 0.4 mm 4 mps 754 mmHg 86%
    15:00 +28°C° 0.4 mm 4 mps 754 mmHg 88%
    16:00 +28°C° 0.4 mm 5 mps 754 mmHg 91%
    17:00 +28°C° 0 mm 4 mps 754 mmHg 91%
    18:00 +27°C° 0 mm 4 mps 755 mmHg 92%
    19:00 +27°C° 0 mm 4 mps 755 mmHg 93%
    20:00 +27°C° 0.1 mm 4 mps 755 mmHg 94%
    21:00 +27°C° 0.1 mm 4 mps 756 mmHg 94%
    22:00 +27°C° 0.1 mm 4 mps 756 mmHg 94%
    23:00 +27°C° 0 mm 4 mps 756 mmHg 94%
    Show more